MOLNIYA 2-9 1 7276U 74026A 25039.76734142 -.00000037 00000-0 00000+0 0 9994 2 7276 64.3304 94.9204 6539014 268.1166 21.6725 2.45097506273092 MOLNIYA 2-10 1 07376U 74056A 25038.97726161 .00000756 00000-0 00000-0 0 9990 2 07376 65.3662 351.5544 6834372 276.1316 16.1683 2.01183439369799 MOLNIYA 1-S 1 07392U 74060A 25039.90862208 .00000109 00000-0 00000-0 0 9992 2 07392 2.6343 265.7876 0008109 256.3074 355.2161 1.00221939129223 MOLNIYA 1-29 1 07780U 75036A 25039.26263435 .00000275 00000-0 95391-1 0 9995 2 07780 63.5882 115.3052 6754702 282.1896 14.7183 2.00620911365010 MOLNIYA 2-14 1 08195U 75081A 25039.10635484 -.00001122 00000-0 00000-0 0 9991 2 08195 63.9331 87.5327 6757673 287.2237 13.2027 2.02096853362421 MOLNIYA 1-32 1 08601U 76006A 25037.89650949 -.00000415 00000-0 00000-0 0 9992 2 08601 63.6182 184.4150 6741477 280.4069 15.3200 1.99969788 71983 MOLNIYA 1-36 1 09880U 77021A 25039.43032527 .00000933 00000-0 00000-0 0 9992 2 09880 63.4871 160.1133 6697926 285.2205 14.1443 2.00355081248768 MOLNIYA 3-8 1 10455U 77105A 25036.61729720 .00000866 00000-0 00000-0 0 9995 2 10455 63.7748 228.2983 6914425 280.9482 13.9800 2.00774252346485 MOLNIYA 1-40 1 10925U 78055A 25038.72602441 .00000555 00000-0 00000-0 0 9991 2 10925 63.9936 276.6291 7036103 278.3746 14.0238 2.00698597342064 MOLNIYA 3-10 1 11057U 78095A 25038.21341649 .00000013 00000-0 41391-3 0 9996 2 11057 63.4806 54.8915 5620872 314.8472 11.3014 4.09912322423319 MOLNIYA 3-13 1 11896U 80063A 25038.92852289 -.00000196 00000-0 99541-4 0 9994 2 11896 63.6284 0.4815 7332673 278.2715 11.9997 2.00685509326481 MOLNIYA 1-52 1 13012U 81123A 25036.75103674 -.00001106 00000-0 41903-2 0 9999 2 13012 61.4763 144.7880 7230083 267.5151 15.9568 2.00537639315927 MOLNIYA 1-53 1 13070U 82015A 25039.31626966 .00001416 00000-0 51987-1 0 9998 2 13070 62.9141 100.0450 6999608 283.6329 12.6808 2.00680143314654 MOLNIYA 3-20 1 13875U 83015A 25035.56390143 .00001100 00000-0 13661-1 0 9997 2 13875 61.9427 210.0823 7106918 268.1984 16.7002 2.00417573243038 MOLNIYA 1-56 1 13890U 83019A 25028.20015780 .00001674 00000-0 20175-1 0 9996 2 13890 62.5360 232.5865 7144048 272.6641 14.9227 1.99988773305714 MOLNIYA 1-63 1 15429U 84124A 25035.57729382 .00000266 00000-0 00000-0 0 9992 2 15429 63.4188 59.9347 7162154 256.3027 348.9155 2.00339724294078 MOLNIYA 3-24 1 15738U 85040A 25038.73906339 .00000082 00000-0 -76492-3 0 9991 2 15738 62.4843 250.9420 6871915 252.1057 26.7496 2.55665245328573 MOLNIYA 3-27 1 16393U 85117A 25038.79879914 .00000028 00000-0 00000-0 0 9996 2 16393 62.7704 300.8105 7173563 246.9149 26.5459 2.12403981294707 MOLNIYA 3-31 1 17328U 87008A 25038.89414460 -.00000162 00000-0 28628-3 0 9997 2 17328 62.9342 351.9576 7426422 254.6189 19.4677 2.00715726275252 MOLNIYA 1-71 1 18946U 88017A 25035.22822873 -.00001192 00000-0 67370-3 0 9991 2 18946 62.5638 337.3082 7471324 260.2744 16.6226 2.00781376270375 MOLNIYA 1-75 1 19807U 89014A 25034.77599832 -.00000489 00000-0 00000-0 0 9993 2 19807 63.8121 188.4582 6623641 259.7034 25.0245 2.00466193263293 MOLNIYA 1-80 1 21118U 91012A 25033.94430835 .00000170 00000-0 00000-0 0 9993 2 21118 64.9448 237.7033 6393755 264.2113 24.9203 2.05236324250714 MOLNIYA 3-40 1 21196U 91022A 25038.79697800 .00001019 00000-0 00000-0 0 9998 2 21196 64.7530 231.4608 6439707 261.4838 25.9170 2.02996458249305 MOLNIYA 1-81 1 21426U 91043A 25037.58099240 .00000276 00000-0 00000-0 0 9991 2 21426 63.4724 230.5948 6777371 261.7367 22.4344 2.00614405246524 MOLNIYA 3-41 1 21706U 91065A 25036.42014896 -.00001036 00000-0 55650-3 0 9992 2 21706 63.6841 41.0436 7349968 250.9081 22.0985 2.04362508246564 MOLNIYA 3-42 1 22178U 92067A 25039.51666599 -.00000095 00000-0 00000+0 0 9994 2 22178 64.6194 109.8689 6744537 252.2595 28.1009 2.20434072245835 MOLNIYA 1-86 1 22671U 93035A 25040.17374559 .00001623 00000-0 13342-2 0 9997 2 22671 63.0583 30.7365 4889166 23.4528 352.8590 5.63977751406748 MOLNIYA 1-87 1 22949U 93079A 25039.20827969 -.00000710 00000-0 00000+0 0 9994 2 22949 65.0120 338.3998 6948581 275.3227 15.6192 2.02855793228898 MOLNIYA 1-88 1 23420U 94081A 25039.02702967 -.00000026 00000-0 00000-0 0 9994 2 23420 64.4222 338.0707 5909429 265.7889 28.8745 3.34494107146037 MOLNIYA 3-47 1 23642U 95042A 25033.89055754 .00000365 00000-0 00000-0 0 9997 2 23642 65.0281 321.7993 6903349 275.4471 15.9447 2.01976319216433 MOLNIYA 1-90 1 24960U 97054A 25038.86970412 -.00000006 00000-0 24053-3 0 9995 2 24960 64.3706 306.6949 6051740 288.2865 17.5258 3.18687091238800 MOLNIYA 1-91 1 25485U 98054A 25039.23397545 -.00000155 00000-0 00000-0 0 9999 2 25485 64.3696 358.6123 6808361 288.7081 12.5259 2.36444845201898 MOLNIYA 3-50 1 25847U 99036A 25039.51896963 .00000327 00000-0 -58780-1 0 9991 2 25847 63.5103 206.9233 6871619 280.9981 14.2235 2.00626444187513